This is the latest recevied weather packets stored in our database for station/object N2OCK. If no packets are shown the sender has not sent any weather packets the latest 10 day(s).
| Time | Temp. | Humidity | Pressure | Rain* | Wind** | Luminosity | Snow |
|---|---|---|---|---|---|---|---|
| 1777554025 | 9.44° C | 99% | 1007.8 hPa | 0 mm | - | 71 W/m² | - |
| 1777553721 | 9.44° C | 99% | 1007.8 hPa | 0 mm | - | 75 W/m² | - |
| 1777553418 | 9.44° C | 99% | 1007.7 hPa | 0 mm | - | 67 W/m² | - |
| 1777553115 | 8.89° C | 99% | 1007.8 hPa | 0 mm | - | 76 W/m² | - |
| 1777552814 | 8.89° C | 99% | 1007.8 hPa | 0 mm | - | 71 W/m² | - |
| 1777552510 | 8.89° C | 99% | 1007.7 hPa | 0 mm | - | 53 W/m² | - |
| 1777552207 | 8.89° C | 99% | 1007.6 hPa | 0 mm | - | 60 W/m² | - |
| 1777551904 | 8.89° C | 99% | 1007.7 hPa | 0 mm | - | 53 W/m² | - |
| 1777551601 | 8.89° C | 99% | 1007.8 hPa | 0 mm | - | 44 W/m² | - |
| 1777551299 | 8.89° C | 99% | 1007.7 hPa | 0 mm | - | 40 W/m² | - |
| 1777550995 | 8.89° C | 99% | 1007.7 hPa | 0 mm | - | 54 W/m² | - |
| 1777550692 | 8.89° C | 99% | 1008.1 hPa | 0 mm | - | 43 W/m² | - |
| 1777550388 | 8.89° C | 99% | 1008.2 hPa | 0 mm | - | 17 W/m² | - |
| 1777550084 | 8.89° C | 99% | 1008.3 hPa | 0 mm | - | 21 W/m² | - |
| 1777549781 | 8.89° C | 99% | 1008.2 hPa | 0 mm | - | 31 W/m² | - |
| 1777549477 | 8.89° C | 99% | 1008.3 hPa | 0 mm | - | 37 W/m² | - |
| 1777549173 | 8.89° C | 99% | 1008.3 hPa | 0 mm | - | 35 W/m² | - |
| 1777548870 | 8.89° C | 99% | 1008.5 hPa | 0 mm | - | 52 W/m² | - |
| 1777548567 | 8.89° C | 99% | 1008.3 hPa | 0 mm | - | 27 W/m² | - |
| 1777548263 | 8.89° C | 99% | 1008.2 hPa | 0 mm | - | 24 W/m² | - |
| 1777547960 | 8.89° C | 99% | 1008.1 hPa | 0 mm | - | 30 W/m² | - |
| 1777547656 | 8.89° C | 99% | 1008.2 hPa | 0 mm | - | 26 W/m² | - |
| 1777547353 | 8.89° C | 99% | 1008.2 hPa | 1.78 mm | - | 22 W/m² | - |
| 1777547051 | 8.89° C | 99% | 1008.3 hPa | 1.78 mm | - | 14 W/m² | - |
| 1777546748 | 8.89° C | 99% | 1008.2 hPa | 0 mm | - | 11 W/m² | - |
* Rain latest hour (hover to see other rain measurements)
** Current wind speed in m/s (hover to see current wind gust speed)